User: anonymous   Login
Location: Hartman Creek State Park
(44.3257°N, 89.2134°W)
Time: 15:16:19
(UTC-05:00)
Language:

BREEZE-M DEB (TANK) - Orbit

View from above orbital plane
View from above orbital plane
View from above satellite
View from above satellite

Ground track
Ground track

The orbit data is extracted from the following two-line orbital elements,

1 29649U 06056B   15148.71502356  .00002931  00000-0  80423-3 0  9990
2 29649 049.4908 060.9970 5383198 054.4046 051.1683 04.96646439150367
Epoch (UTC): 28 May 2015 17:09:38
Eccentricity: 0.5383198
inclination: 49.4908°
perigee height: 321 km
apogee height: 15944 km
right ascension of ascending node: 60.9970°
argument of perigee: 54.4046°
revolutions per day: 4.96646439
mean anomaly at epoch: 51.1683°
orbit number at epoch: 15036

The dashed part of the orbit path shows where the satellite is in the earth's shadow,  

DLR